When you browse on this site, cookies collect data to enhance your experience and personalize the content and advertising you see.
Visit our Privacy Policy to learn more. By continuing to use the site, you agree to this use of cookies and data.
  • In Romania
  • List of Countries
  • For 7 days
  • Water Temperature
  • Satellite Maps
  • Weather Map
  • Weather Widgets
  • user-avatar
    Login

    Hourly Weather Maidstone

    Today, 20 April, Saturday

    Time Temperature Precipitation Wind Pressure Humidity
    00:00 +10°C° 0 mm 3 mps 770 mmHg 81%
    01:00 +10°C° 0 mm 3 mps 770 mmHg 82%
    02:00 +9°C° 0 mm 3 mps 770 mmHg 84%
    03:00 +9°C° 0 mm 3 mps 770 mmHg 85%
    04:00 +9°C° 0 mm 3 mps 770 mmHg 86%
    05:00 +10°C° 0 mm 3 mps 770 mmHg 86%
    06:00 +10°C° 0 mm 4 mps 770 mmHg 84%
    07:00 +11°C° 0 mm 4 mps 770 mmHg 81%
    08:00 +13°C° 0 mm 4 mps 770 mmHg 77%
    09:00 +15°C° 0 mm 4 mps 770 mmHg 74%
    10:00 +17°C° 0 mm 4 mps 770 mmHg 71%
    11:00 +19°C° 0 mm 4 mps 770 mmHg 68%
    12:00 +20°C° 0 mm 4 mps 770 mmHg 65%
    13:00 +20°C° 0 mm 4 mps 769 mmHg 65%
    14:00 +20°C° 0 mm 4 mps 769 mmHg 64%
    15:00 +20°C° 0 mm 4 mps 769 mmHg 64%
    16:00 +19°C° 0 mm 4 mps 768 mmHg 68%
    17:00 +17°C° 0 mm 3 mps 768 mmHg 72%
    18:00 +16°C° 0 mm 3 mps 768 mmHg 77%
    19:00 +14°C° 0 mm 3 mps 768 mmHg 77%
    20:00 +12°C° 0 mm 3 mps 768 mmHg 78%
    21:00 +11°C° 0 mm 3 mps 768 mmHg 79%
    22:00 +12°C° 0 mm 2 mps 768 mmHg 79%
    23:00 +10°C° 0 mm 2 mps 768 mmHg 78%

    Tomorrow, 21 April, Sunday

    Time Temperature Precipitation Wind Pressure Humidity
    00:00 +10°C° 0 mm 2 mps 768 mmHg 78%
    01:00 +10°C° 0 mm 2 mps 767 mmHg 79%
    02:00 +9°C° 0 mm 2 mps 767 mmHg 81%
    03:00 +9°C° 0 mm 2 mps 766 mmHg 82%
    04:00 +10°C° 0 mm 2 mps 766 mmHg 83%
    05:00 +10°C° 0 mm 2 mps 766 mmHg 83%
    06:00 +10°C° 0 mm 2 mps 765 mmHg 83%
    07:00 +13°C° 0 mm 2 mps 765 mmHg 78%
    08:00 +15°C° 0 mm 2 mps 765 mmHg 72%
    09:00 +18°C° 0 mm 2 mps 765 mmHg 66%
    10:00 +18°C° 0 mm 2 mps 764 mmHg 63%
    11:00 +19°C° 0 mm 3 mps 764 mmHg 59%
    12:00 +20°C° 0 mm 3 mps 763 mmHg 56%
    13:00 +20°C° 0 mm 3 mps 763 mmHg 55%
    14:00 +20°C° 0 mm 3 mps 762 mmHg 55%
    15:00 +20°C° 0 mm 3 mps 761 mmHg 55%
    16:00 +18°C° 0 mm 3 mps 761 mmHg 60%
    17:00 +17°C° 0 mm 3 mps 760 mmHg 65%
    18:00 +15°C° 0 mm 2 mps 760 mmHg 71%
    19:00 +14°C° 0 mm 2 mps 760 mmHg 71%
    20:00 +12°C° 0 mm 2 mps 760 mmHg 72%
    21:00 +10°C° 0 mm 2 mps 760 mmHg 72%
    22:00 +10°C° 0 mm 2 mps 759 mmHg 74%
    23:00 +10°C° 0 mm 2 mps 759 mmHg 76%

    Day after tomorrow, 22 April, Monday

    Time Temperature Precipitation Wind Pressure Humidity
    00:00 +10°C° 0 mm 2 mps 758 mmHg 77%
    01:00 +10°C° 0 mm 2 mps 758 mmHg 79%
    02:00 +10°C° 0 mm 2 mps 757 mmHg 80%
    03:00 +10°C° 0 mm 2 mps 756 mmHg 81%
    04:00 +10°C° 0 mm 2 mps 756 mmHg 81%
    05:00 +12°C° 0 mm 2 mps 755 mmHg 81%
    06:00 +12°C° 0 mm 2 mps 755 mmHg 81%
    07:00 +14°C° 0 mm 2 mps 755 mmHg 78%
    08:00 +16°C° 0 mm 3 mps 754 mmHg 75%
    09:00 +18°C° 0 mm 3 mps 754 mmHg 71%
    10:00 +19°C° 0 mm 4 mps 753 mmHg 66%
    11:00 +20°C° 0 mm 4 mps 753 mmHg 61%
    12:00 +20°C° 0 mm 5 mps 752 mmHg 56%
    13:00 +20°C° 0 mm 5 mps 752 mmHg 57%
    14:00 +20°C° 0 mm 5 mps 751 mmHg 58%
    15:00 +20°C° 0 mm 5 mps 750 mmHg 59%
    16:00 +19°C° 0 mm 4 mps 750 mmHg 64%
    17:00 +18°C° 0 mm 4 mps 750 mmHg 69%
    18:00 +17°C° 0 mm 4 mps 749 mmHg 74%
    19:00 +16°C° 0 mm 3 mps 749 mmHg 73%
    20:00 +14°C° 0 mm 3 mps 749 mmHg 73%
    21:00 +13°C° 0 mm 3 mps 749 mmHg 73%
    22:00 +13°C° 0 mm 3 mps 749 mmHg 75%
    23:00 +14°C° 0 mm 2 mps 749 mmHg 77%

    23 April, Tuesday

    Time Temperature Precipitation Wind Pressure Humidity
    00:00 +14°C° 0 mm 2 mps 748 mmHg 80%
    01:00 +14°C° 0 mm 2 mps 748 mmHg 81%
    02:00 +14°C° 0 mm 2 mps 748 mmHg 82%
    03:00 +13°C° 0 mm 2 mps 747 mmHg 82%
    04:00 +13°C° 0 mm 2 mps 747 mmHg 83%
    05:00 +12°C° 0 mm 3 mps 747 mmHg 83%
    06:00 +12°C° 0 mm 3 mps 747 mmHg 83%
    07:00 +13°C° 0 mm 3 mps 747 mmHg 79%
    08:00 +14°C° 0 mm 4 mps 747 mmHg 75%
    09:00 +17°C° 0 mm 4 mps 747 mmHg 71%
    10:00 +17°C° 0 mm 4 mps 747 mmHg 69%
    11:00 +17°C° 0 mm 5 mps 747 mmHg 67%
    12:00 +19°C° 0 mm 5 mps 747 mmHg 65%
    13:00 +17°C° 0 mm 5 mps 746 mmHg 66%
    14:00 +17°C° 0 mm 5 mps 746 mmHg 66%
    15:00 +17°C° 0 mm 5 mps 746 mmHg 66%
    16:00 +16°C° 0 mm 5 mps 745 mmHg 69%
    17:00 +15°C° 0 mm 5 mps 745 mmHg 72%
    18:00 +14°C° 0 mm 4 mps 745 mmHg 75%
    19:00 +13°C° 0 mm 4 mps 745 mmHg 78%
    20:00 +12°C° 0 mm 3 mps 745 mmHg 80%
    21:00 +11°C° 0 mm 3 mps 745 mmHg 83%
    22:00 +11°C° 0 mm 3 mps 745 mmHg 84%
    23:00 +11°C° 0 mm 3 mps 745 mmHg 84%

    24 April, Wednesday

    Time Temperature Precipitation Wind Pressure Humidity
    00:00 +11°C° 0 mm 3 mps 744 mmHg 85%
    01:00 +11°C° 0 mm 3 mps 744 mmHg 87%
    02:00 +11°C° 0 mm 3 mps 744 mmHg 88%
    03:00 +11°C° 0 mm 3 mps 744 mmHg 89%
    04:00 +11°C° 0.2 mm 3 mps 744 mmHg 91%
    05:00 +13°C° 0.2 mm 2 mps 744 mmHg 93%
    06:00 +13°C° 0.2 mm 2 mps 743 mmHg 95%
    07:00 +13°C° 0.8 mm 2 mps 744 mmHg 95%
    08:00 +13°C° 0.8 mm 3 mps 744 mmHg 95%
    09:00 +13°C° 0.8 mm 3 mps 744 mmHg 94%
    10:00 +13°C° 1 mm 4 mps 745 mmHg 91%
    11:00 +12°C° 1 mm 5 mps 745 mmHg 88%
    12:00 +12°C° 1 mm 5 mps 745 mmHg 85%
    13:00 +13°C° 0 mm 6 mps 745 mmHg 79%
    14:00 +14°C° 0 mm 6 mps 746 mmHg 74%
    15:00 +14°C° 0 mm 6 mps 746 mmHg 68%
    16:00 +13°C° 0.3 mm 5 mps 746 mmHg 75%
    17:00 +12°C° 0.3 mm 5 mps 746 mmHg 82%
    18:00 +10°C° 0.3 mm 4 mps 746 mmHg 88%
    19:00 +10°C° 0 mm 4 mps 747 mmHg 89%
    20:00 +8°C° 0 mm 4 mps 747 mmHg 89%
    21:00 +8°C° 0 mm 4 mps 747 mmHg 89%
    22:00 +8°C° 0 mm 5 mps 747 mmHg 88%
    23:00 +9°C° 0 mm 6 mps 746 mmHg 87%

    25 April, Thursday

    Time Temperature Precipitation Wind Pressure Humidity
    00:00 +9°C° 0 mm 6 mps 746 mmHg 86%
    01:00 +9°C° 0.2 mm 7 mps 746 mmHg 88%
    02:00 +9°C° 0.2 mm 7 mps 746 mmHg 89%
    03:00 +9°C° 0.2 mm 8 mps 746 mmHg 91%
    04:00 +9°C° 0.1 mm 8 mps 746 mmHg 89%
    05:00 +8°C° 0.1 mm 7 mps 746 mmHg 87%
    06:00 +8°C° 0.1 mm 7 mps 746 mmHg 85%
    07:00 +9°C° 0.1 mm 8 mps 746 mmHg 82%
    08:00 +9°C° 0.1 mm 10 mps 747 mmHg 78%
    09:00 +9°C° 0.1 mm 11 mps 747 mmHg 75%
    10:00 +11°C° 0.2 mm 11 mps 747 mmHg 72%
    11:00 +11°C° 0.2 mm 11 mps 747 mmHg 68%
    12:00 +12°C° 0.2 mm 11 mps 747 mmHg 65%
    13:00 +12°C° 0.1 mm 11 mps 747 mmHg 64%
    14:00 +12°C° 0.1 mm 10 mps 748 mmHg 63%
    15:00 +12°C° 0.1 mm 9 mps 748 mmHg 63%
    16:00 +11°C° 0.1 mm 8 mps 749 mmHg 67%
    17:00 +10°C° 0.1 mm 6 mps 749 mmHg 71%
    18:00 +10°C° 0.1 mm 5 mps 750 mmHg 75%
    19:00 +9°C° 0 mm 5 mps 750 mmHg 77%
    20:00 +8°C° 0 mm 4 mps 751 mmHg 80%
    21:00 +7°C° 0 mm 4 mps 751 mmHg 83%
    22:00 +7°C° 0 mm 4 mps 751 mmHg 84%
    23:00 +7°C° 0 mm 4 mps 752 mmHg 85%
    Show more